Wind_Speed
14 14 15 16 17 18 19 20 21 22 22 22 23 24 25 26 26 26 25 25 24 24 24 25 26 27 28 28 28 29 30 31 32 33 35 36 35 34 31 27 24 22
14 14 15 17 18 19 20 21 22 23 23 23 24 25 26 26 26 26 26 25 25 24 25 25 26 27 28 28 28 29 30 31 31 32 34 35 34 33 32 28 23 20
15 15 17 18 19 20 21 23 23 24 24 24 25 26 26 26 26 26 26 26 25 25 25 25 26 27 28 29 29 29 30 30 31 31 32 33 34 33 32 29 24 20
16 17 18 19 20 21 22 24 24 24 24 24 25 26 26 27 27 26 26 26 25 25 25 26 27 27 28 29 30 30 30 31 31 31 31 31 32 32 31 29 27 23
18 19 20 20 21 22 23 24 25 24 24 24 25 26 27 27 27 27 26 26 26 26 26 26 27 28 28 29 30 30 30 31 31 31 31 30 31 31 30 29 27 26
20 21 21 21 22 23 24 25 26 25 25 25 26 27 27 27 27 27 27 27 26 26 26 27 27 28 28 29 29 30 30 30 30 30 30 30 29 29 30 29 27 25
22 22 22 22 23 24 25 26 27 26 26 26 27 28 28 28 27 27 27 27 27 26 26 27 27 27 28 29 29 29 30 30 30 30 30 29 29 28 29 29 27 25
23 23 23 24 24 25 26 27 28 27 27 28 29 29 28 28 28 27 27 27 27 26 26 27 27 27 28 28 29 29 30 30 30 30 29 28 27 27 27 28 27 26
24 24 25 25 26 26 27 28 29 29 29 29 30 30 29 29 28 28 27 27 27 26 26 27 27 27 27 28 29 29 30 30 29 29 28 27 26 25 25 25 26 25
25 25 26 26 26 27 28 29 30 30 30 30 31 30 30 29 28 28 27 27 26 26 26 27 27 27 27 28 29 29 29 29 29 28 27 27 26 25 24 23 23 24
26 26 27 27 28 29 29 30 31 31 31 31 31 31 30 29 28 28 27 27 26 26 26 27 27 27 28 28 29 29 29 29 29 28 27 26 25 24 23 23 22 22
26 27 28 28 29 30 31 31 31 31 31 32 32 31 30 29 28 27 27 26 26 25 26 26 27 28 28 28 29 29 29 29 29 28 27 26 25 24 23 22 22 22
27 28 29 29 30 31 32 32 31 31 32 32 31 31 30 29 28 27 27 26 26 26 26 27 28 28 29 29 29 29 29 28 28 28 27 26 25 24 23 22 21 21
28 29 29 30 31 32 32 32 32 32 32 31 31 30 29 29 28 27 27 26 26 27 27 28 28 29 29 29 29 29 29 28 28 27 26 26 25 24 24 23 22 22
29 30 31 31 32 32 32 32 32 32 32 31 31 30 30 29 28 27 27 27 27 27 28 28 29 29 29 30 29 29 28 28 27 27 26 26 25 25 24 24 24 23
30 31 32 32 32 32 32 32 32 32 32 31 31 30 30 28 28 27 27 27 28 28 28 28 29 29 29 29 28 28 27 27 27 27 27 26 26 26 26 26 26 26
31 32 32 32 32 31 32 32 32 32 32 32 31 30 29 28 28 28 27 27 27 27 27 27 27 28 27 27 27 27 27 27 27 27 28 28 28 29 29 28 28 28
32 32 32 31 31 31 32 32 32 32 32 32 31 30 29 28 28 27 27 26 26 26 26 26 26 26 26 26 26 27 27 28 28 29 29 30 31 32 32 32 31 31
32 32 31 31 31 31 32 32 32 32 32 31 30 29 28 27 27 26 25 25 24 24 24 24 24 25 26 26 27 28 29 30 31 31 31 32 32 33 34 34 34 34
31 31 31 30 31 31 31 31 32 31 31 30 28 28 27 25 24 23 23 22 22 23 23 24 25 26 27 28 29 30 31 32 32 32 32 32 32 32 33 33 34 34
30 30 30 30 30 30 30 31 31 30 29 28 27 25 24 22 21 21 21 21 22 23 24 25 27 28 29 30 30 31 31 31 31 32 32 32 32 32 32 33 33 34
29 29 28 28 29 29 29 30 29 29 27 26 24 23 21 21 21 21 22 23 24 25 27 28 28 29 29 29 29 30 30 31 31 32 32 33 33 33 33 33 34 34
28 27 27 27 28 28 28 28 28 27 25 24 22 21 21 21 21 22 23 25 26 27 28 28 28 28 28 28 29 30 31 31 32 32 32 32 32 32 32 31 31 31
26 26 26 27 27 27 27 26 26 25 23 22 21 21 21 22 23 24 26 27 27 27 27 27 27 27 28 29 29 30 31 31 31 30 30 29 28 27 27 27 27 27
24 24 25 26 26 25 25 24 24 23 22 21 21 22 22 23 25 26 27 27 27 26 26 26 26 27 28 29 30 30 29 28 28 27 26 25 24 24 24 25 25 25
23 24 25 24 24 23 23 22 22 22 22 21 22 23 24 25 26 27 27 26 26 25 25 25 26 27 28 28 28 27 26 25 24 24 23 23 24 24 25 25 25 25
Wind_Direction
293 299 304 309 312 315 315 315 316 315 313 311 307 304 302 301 301 301 302 302 302 303 305 309 311 312 314 317 321 326 328 330 331 331 333 335 339 342 338 330 329 329
295 301 306 308 309 310 312 313 313 313 312 311 309 306 304 303 302 302 301 302 302 304 306 308 311 312 314 318 322 326 328 331 331 332 333 335 337 342 342 337 332 329
296 300 302 303 304 307 309 310 310 310 310 311 310 309 307 306 304 303 302 303 304 305 307 308 310 312 314 317 321 325 328 330 331 331 332 334 335 339 343 343 337 330
295 296 297 299 301 304 306 307 308 308 309 310 310 309 308 307 306 305 305 306 306 307 307 308 309 311 313 317 320 323 327 329 330 331 332 333 334 336 340 343 341 335
291 291 294 296 300 303 305 307 308 309 309 311 311 309 308 308 308 308 308 309 309 309 308 308 309 310 312 316 319 322 326 327 328 330 331 332 332 333 336 340 341 339
286 288 291 296 300 304 306 307 309 311 312 312 311 310 309 309 310 310 311 311 310 310 309 309 309 310 312 315 318 321 323 325 327 328 329 330 330 331 332 334 338 340
283 287 292 296 301 304 306 308 311 314 315 314 312 311 311 311 311 312 312 312 312 311 310 310 310 311 313 315 317 319 321 323 325 326 327 328 328 328 328 330 333 336
284 288 292 297 301 304 306 308 311 313 315 315 314 313 312 312 312 313 313 313 313 312 311 311 312 313 313 315 316 318 320 322 324 325 325 325 325 325 325 325 328 331
284 287 291 295 299 303 305 308 309 311 313 314 314 313 313 312 312 313 313 313 313 313 313 313 314 314 314 315 317 318 319 321 322 323 323 322 321 321 320 321 323 326
283 286 290 294 298 301 304 306 308 309 311 313 314 314 312 312 312 312 312 313 313 314 315 315 316 316 317 317 318 319 320 320 321 321 320 319 318 317 317 317 318 320
282 286 290 293 297 300 302 304 306 308 310 312 313 313 312 311 311 311 311 312 313 314 315 316 317 318 318 319 319 320 320 320 320 319 318 317 316 315 314 314 314 315
281 285 288 292 295 298 301 304 306 307 309 311 313 312 311 310 310 310 311 312 313 314 315 316 317 318 318 318 319 319 319 319 318 317 317 316 314 313 311 311 311 311
279 282 286 289 293 296 300 303 305 306 308 311 312 312 310 309 309 310 310 312 313 315 316 317 317 318 318 317 317 317 317 317 316 316 315 314 313 312 310 309 309 309
278 281 284 287 292 295 300 303 304 306 308 310 311 311 310 309 309 309 310 312 314 315 316 317 317 317 316 316 316 316 316 315 315 314 313 312 311 311 310 309 308 307
276 279 282 286 291 296 300 303 304 306 308 310 311 310 309 308 308 309 311 312 313 314 315 315 316 315 315 315 315 315 315 315 315 314 313 312 311 311 310 310 309 308
273 277 281 286 291 296 300 302 304 306 308 310 310 309 308 308 308 309 311 312 313 313 314 314 314 314 315 315 315 316 316 316 315 315 314 313 312 311 311 311 310 309
271 275 281 286 292 297 300 302 303 306 308 309 309 308 307 308 309 310 310 311 312 312 313 314 314 315 316 316 317 317 316 316 315 315 314 313 312 311 310 310 309 308
270 276 282 287 293 298 300 301 304 306 308 308 308 307 307 308 308 309 310 310 311 312 313 314 315 316 317 317 317 316 315 315 314 313 312 311 310 310 309 308 307 306
270 277 282 288 295 298 299 301 304 307 308 308 307 307 307 308 308 309 310 311 312 313 315 316 316 317 317 316 315 314 313 312 311 310 309 309 308 307 307 306 306 305
271 276 283 290 295 296 298 301 305 307 307 307 307 307 308 309 310 311 313 313 314 315 316 317 316 316 315 314 312 311 311 310 309 309 308 307 307 306 306 305 305 304
271 277 284 290 293 295 298 302 305 306 306 306 307 308 310 311 313 314 314 315 316 316 316 316 315 314 313 312 311 311 311 310 310 310 309 308 307 306 305 304 303 303
271 278 285 290 292 295 299 302 304 305 305 306 307 309 310 311 313 314 316 317 317 316 316 314 313 313 313 313 313 312 312 312 312 311 310 309 308 307 306 305 304 303
272 279 286 290 292 295 298 301 303 303 304 305 306 307 308 311 314 316 317 317 316 315 314 314 314 314 314 315 315 314 314 313 312 311 310 310 310 309 309 308 308 307
273 280 286 289 292 295 297 299 300 301 301 303 305 307 309 312 315 317 317 316 315 314 314 314 315 316 316 315 315 314 314 314 313 313 313 313 313 314 315 315 316 316
273 280 285 288 290 293 295 296 297 298 299 302 305 308 311 314 316 316 315 314 314 314 315 315 316 316 316 316 316 316 316 317 317 316 317 317 319 320 321 321 320 320
274 279 283 286 288 291 293 294 296 298 299 302 306 310 312 315 316 315 314 314 314 314 315 316 317 317 318 318 319 319 319 319 319 319 320 322 323 323 322 321 321 321
Height
5816 5816 5816 5815 5815 5815 5814 5813 5813 5812 5811 5810 5809 5808 5806 5805 5804 5802 5801 5800 5798 5797 5795 5793 5791 5789 5787 5785 5783 5780 5777 5775 5772 5769 5765 5762 5758 5754 5750 5747 5744 5741
5814 5814 5814 5814 5813 5813 5812 5812 5811 5811 5810 5808 5807 5806 5805 5803 5802 5800 5799 5797 5795 5794 5792 5790 5788 5786 5784 5782 5780 5778 5775 5772 5770 5767 5764 5760 5756 5753 5749 5746 5743 5741
5811 5812 5812 5812 5811 5811 5811 5810 5810 5809 5808 5806 5805 5804 5802 5801 5799 5798 5796 5794 5792 5790 5789 5787 5785 5783 5781 5779 5777 5775 5773 5770 5768 5765 5762 5758 5755 5751 5748 5745 5742 5740
5809 5810 5810 5810 5809 5809 5809 5808 5807 5807 5805 5804 5803 5801 5800 5798 5796 5795 5793 5791 5789 5787 5786 5784 5782 5780 5778 5776 5774 5772 5770 5768 5766 5763 5760 5757 5754 5750 5747 5744 5741 5739
5808 5808 5808 5808 5807 5807 5806 5806 5805 5804 5803 5802 5800 5799 5797 5795 5794 5792 5790 5788 5786 5784 5783 5781 5779 5777 5776 5774 5772 5770 5768 5766 5763 5761 5758 5755 5752 5749 5746 5743 5741 5738
5806 5806 5805 5805 5805 5804 5804 5803 5802 5801 5800 5799 5798 5796 5794 5793 5790 5788 5786 5785 5783 5781 5780 5778 5776 5775 5773 5771 5769 5767 5765 5763 5761 5758 5756 5754 5751 5748 5745 5742 5739 5737
5803 5803 5803 5803 5802 5802 5801 5800 5799 5798 5797 5796 5794 5793 5791 5789 5787 5785 5784 5782 5780 5779 5777 5775 5774 5772 5770 5768 5767 5765 5763 5761 5758 5756 5754 5751 5749 5746 5744 5741 5738 5736
5801 5801 5800 5800 5799 5799 5798 5797 5796 5795 5794 5793 5791 5790 5788 5786 5784 5782 5781 5779 5777 5776 5774 5772 5771 5769 5767 5766 5764 5762 5760 5758 5756 5754 5751 5749 5747 5744 5742 5739 5737 5734
5798 5798 5798 5797 5797 5796 5795 5794 5793 5792 5791 5789 5788 5786 5785 5783 5781 5779 5778 5776 5775 5773 5771 5770 5768 5767 5765 5763 5761 5759 5757 5755 5753 5751 5749 5747 5745 5743 5740 5738 5736 5733
5796 5795 5795 5794 5794 5793 5792 5792 5790 5789 5788 5786 5785 5783 5781 5780 5778 5777 5775 5773 5772 5770 5768 5767 5765 5764 5762 5760 5758 5756 5754 5752 5750 5748 5747 5745 5743 5741 5739 5736 5734 5732
5793 5792 5792 5791 5791 5790 5789 5789 5787 5786 5785 5783 5782 5780 5778 5777 5775 5774 5772 5771 5769 5767 5766 5764 5762 5760 5759 5757 5755 5753 5751 5749 5747 5745 5744 5742 5740 5738 5736 5734 5732 5730
5790 5789 5789 5788 5788 5787 5786 5785 5784 5783 5781 5780 5779 5777 5775 5774 5773 5771 5770 5768 5766 5765 5763 5761 5759 5757 5756 5754 5752 5750 5748 5746 5744 5742 5741 5739 5737 5735 5734 5732 5730 5728
5787 5786 5786 5785 5785 5784 5783 5782 5781 5780 5778 5777 5775 5774 5773 5771 5770 5768 5767 5765 5763 5762 5760 5758 5756 5754 5753 5751 5749 5747 5745 5743 5741 5740 5738 5736 5734 5732 5731 5729 5727 5726
5783 5783 5782 5782 5781 5781 5780 5779 5778 5777 5775 5774 5773 5771 5770 5768 5767 5765 5764 5762 5760 5758 5757 5755 5753 5751 5749 5747 5746 5744 5742 5740 5738 5736 5735 5733 5731 5729 5728 5726 5724 5723
5780 5780 5779 5779 5778 5778 5777 5776 5775 5773 5772 5771 5770 5768 5767 5766 5764 5762 5761 5759 5757 5755 5753 5752 5750 5748 5746 5744 5742 5740 5738 5737 5735 5733 5732 5730 5728 5726 5725 5723 5721 5720
5777 5776 5776 5776 5775 5775 5774 5773 5771 5770 5769 5768 5767 5765 5764 5763 5761 5759 5757 5756 5754 5752 5750 5748 5746 5744 5742 5741 5739 5737 5735 5734 5732 5730 5728 5727 5725 5723 5722 5720 5718 5716
5773 5773 5773 5773 5772 5771 5770 5769 5768 5767 5766 5765 5763 5762 5761 5759 5758 5756 5754 5752 5750 5749 5747 5745 5743 5741 5739 5738 5736 5734 5732 5731 5729 5727 5725 5723 5721 5720 5718 5716 5715 5713
5770 5770 5770 5769 5769 5768 5767 5766 5765 5764 5763 5761 5760 5759 5758 5756 5754 5753 5751 5749 5747 5745 5744 5742 5740 5739 5737 5735 5733 5731 5730 5728 5726 5724 5722 5720 5718 5716 5714 5712 5710 5709
5767 5766 5766 5766 5766 5765 5764 5763 5762 5760 5759 5758 5757 5756 5754 5753 5751 5749 5747 5746 5744 5743 5741 5739 5738 5736 5734 5732 5730 5728 5726 5725 5723 5721 5719 5717 5715 5712 5710 5708 5706 5704
5763 5763 5763 5763 5763 5762 5761 5760 5759 5757 5756 5755 5754 5752 5751 5749 5747 5746 5744 5743 5741 5740 5738 5737 5735 5733 5731 5729 5727 5725 5723 5721 5719 5717 5715 5713 5711 5709 5706 5704 5702 5700
5760 5760 5760 5760 5759 5759 5758 5757 5756 5755 5753 5752 5751 5749 5748 5746 5745 5743 5742 5740 5739 5737 5735 5734 5732 5730 5728 5726 5724 5722 5720 5718 5716 5714 5711 5709 5707 5705 5703 5701 5698 5696
5757 5757 5757 5757 5756 5755 5755 5754 5753 5752 5750 5749 5748 5746 5745 5744 5742 5741 5739 5737 5736 5734 5732 5730 5729 5727 5725 5723 5721 5719 5717 5715 5713 5710 5708 5705 5703 5701 5699 5696 5694 5692
5753 5754 5754 5754 5753 5752 5752 5751 5750 5749 5748 5746 5745 5744 5743 5741 5739 5738 5736 5734 5733 5731 5729 5727 5725 5723 5721 5719 5717 5715 5713 5711 5709 5707 5704 5702 5699 5697 5695 5692 5690 5688
5750 5751 5751 5750 5750 5749 5749 5748 5747 5746 5745 5744 5743 5741 5740 5738 5737 5735 5733 5731 5729 5727 5726 5724 5722 5720 5718 5716 5714 5712 5710 5708 5706 5703 5701 5699 5696 5694 5692 5690 5687 5685
5747 5747 5747 5747 5747 5746 5746 5745 5744 5743 5742 5741 5740 5738 5737 5735 5734 5732 5730 5728 5726 5724 5723 5721 5719 5717 5715 5713 5711 5709 5707 5705 5703 5700 5698 5696 5694 5692 5689 5687 5685 5683
5744 5744 5744 5744 5744 5743 5743 5742 5741 5740 5739 5738 5737 5735 5734 5732 5730 5729 5727 5725 5723 5722 5720 5718 5716 5714 5712 5710 5708 5706 5704 5702 5700 5698 5696 5693 5691 5689 5687 5685 5682 5680